Home > Weather > Canberra > Past weeks

Flag for Australia Past Weather in Canberra, Australian Capital Territory, Australia — Yesterday and Last 2 Weeks

Now
43 °F

Clear.


Feels Like: 37 °F
Forecast: 32 / 55 °F
Wind: 10 mph from Northwest

Location: Canberra Airport

Current Time: May 28, 2016 at 7:55:51 PM

Latest Report: May 28, 2016 at 7:00 PM


Visibility: N/A

Pressure: 29.86 "Hg (27.82 "Hg at 577m altitude)

Humidity: 81%

Dew Point: 37 °F

Location of CanberraLocation

Past Weather in Canberra — Graph

°F

Canberra Temperature Yesterday

Maximum temperature yesterday: 54 °F (at 1:00 PM)
Minimum temperature yesterday: 39 °F (at 11:00 PM)
Average temperature yesterday: 48 °F

High & Low Weather Summary for the Past Weeks

 TemperatureHumidityPressure
High70 °F (May 15, 1:00 PM)100% (May 14, 1:00 AM)30.36 "Hg (May 14, 1:00 AM)
Low30 °F (May 25, 7:00 AM)30% (May 17, 1:00 PM)29.53 "Hg (May 26, 3:00 PM)
Average51 °F74%30.02 "Hg
* Reported May 13 6:00 PM — May 28 6:00 PM, Canberra, Weather by CustomWeather, © 2016

Note: Actual official high and low records may vary slightly from our data, if they occured in-between our weather recording intervals... More about our weather records

Advertising

Canberra Weather History for the Previous 24 Hours

Scroll right to see more
 ConditionsComfort  
Time TempWeatherWind HumidityBarometerVisibility
6:00 PM
Sat, May 28
46 °FPassing clouds.12 mph76%29.83 "HgN/A
5:00 PM48 °FPassing clouds.10 mph76%29.77 "HgN/A
4:00 PM54 °FPassing clouds.10 mph63%29.74 "HgN/A
3:30 PM50 °FBroken clouds.7 mph76%29.74 "HgN/A
3:00 PM50 °FBroken clouds.9 mph76%29.74 "HgN/A
2:00 PM50 °FPartly sunny.9 mph76%29.74 "HgN/A
1:00 PM52 °FPassing clouds.8 mph72%29.71 "HgN/A
12:00 PM45 °FPartly sunny.7 mph81%29.74 "HgN/A
11:30 AM45 °FPartly sunny.1 mph76%29.74 "HgN/A
11:00 AM43 °FScattered showers. Broken clouds.2 mph87%29.74 "HgN/A
10:30 AM43 °FSprinkles. Broken clouds.No wind81%29.74 "HgN/A
10:00 AM41 °FSprinkles. Broken clouds.5 mph87%29.74 "HgN/A
9:30 AM41 °FScattered showers. Partly sunny.3 mph87%29.74 "HgN/A
9:00 AM39 °FScattered showers. Broken clouds.6 mph87%29.74 "HgN/A
8:00 AM39 °FScattered showers. Broken clouds.8 mph81%29.74 "HgN/A
7:00 AM37 °FScattered showers. Partly sunny.6 mph93%29.74 "HgN/A
6:00 AM37 °FPartly sunny.5 mph87%29.74 "HgN/A
5:00 AM39 °FPartly cloudy.5 mph87%29.74 "HgN/A
4:30 AM39 °FOvercast.6 mph93%29.74 "HgN/A
4:00 AM39 °FOvercast.6 mph87%29.74 "HgN/A
3:00 AM37 °FPassing clouds.3 mph93%29.74 "HgN/A
2:30 AM37 °FPassing clouds.6 mph87%29.74 "HgN/A
2:00 AM37 °FClear.5 mph87%29.74 "HgN/A
1:30 AM39 °FClear.8 mph87%29.77 "HgN/A
1:00 AM39 °FClear.10 mph87%29.77 "HgN/A
12:00 AM41 °FClear.14 mph81%29.77 "HgN/A
11:30 PM
Fri, May 27
39 °FClear.9 mph81%29.77 "HgN/A
11:00 PM39 °FClear.8 mph81%29.77 "HgN/A
10:30 PM41 °FClear.9 mph76%29.77 "HgN/A
10:00 PM43 °FClear.15 mph71%29.77 "HgN/A
9:00 PM43 °FClear.13 mph71%29.77 "HgN/A
8:30 PM45 °FPassing clouds.13 mph66%29.74 "HgN/A
8:00 PM46 °FPassing clouds.17 mph62%29.74 "HgN/A
7:00 PM45 °FPassing clouds.12 mph66%29.74 "HgN/A
Weather by CustomWeather, © 2016

See weather overviewHow to use our weather pages